Location: Berlin
(52.5062°N, 13.3923°E)
Time: 01:18:05
(UTC+01:00)

ISS - Visible Passes

Search period start: 08 December 2021 00:00
Search period end: 18 December 2021 00:00
Orbit: 417 x 422 km, 51.6° (Epoch: 07 December)

Date Brightness Start Highest point End Pass type
(mag) Time Alt. Az. Time Alt. Az. Time Alt. Az.
08 Dec -1.8 16:27:26 10° W 16:30:31 32° SSW 16:33:35 10° SE visible
09 Dec -0.4 17:17:52 10° WSW 17:19:24 13° SW 17:20:55 10° SSW visible
10 Dec -0.6 16:29:51 10° W 16:32:13 18° SW 16:34:34 10° S visible
